• In Russia
  • List of Countries
  • For 7 days
  • Water Temperature
  • Satellite Maps
  • Weather Map
  • Weather Widgets
  • user-avatar
    Login

    Hourly Weather Melbourne

    Today, 23 January, Wednesday

    Time Temperature Precipitation Wind Pressure Humidity
    00:00 +22°C° 0 mm 1 mps 758 mmHg 66%
    01:00 +21°C° 0 mm 2 mps 758 mmHg 68%
    02:00 +20°C° 0 mm 2 mps 758 mmHg 72%
    03:00 +19°C° 0 mm 2 mps 758 mmHg 76%
    04:00 +19°C° 0 mm 2 mps 758 mmHg 84%
    05:00 +19°C° 0.1 mm 2 mps 759 mmHg 84%
    06:00 +20°C° 0.1 mm 3 mps 759 mmHg 83%
    07:00 +20°C° 0.1 mm 3 mps 759 mmHg 83%
    08:00 +21°C° 0 mm 3 mps 759 mmHg 78%
    09:00 +22°C° 0 mm 3 mps 759 mmHg 73%
    10:00 +24°C° 0 mm 3 mps 760 mmHg 65%
    11:00 +26°C° 0 mm 3 mps 760 mmHg 58%
    12:00 +27°C° 0 mm 4 mps 759 mmHg 52%
    13:00 +29°C° 0 mm 4 mps 759 mmHg 46%
    14:00 +28°C° 0 mm 5 mps 759 mmHg 47%
    15:00 +28°C° 0 mm 5 mps 759 mmHg 48%
    16:00 +27°C° 0 mm 4 mps 758 mmHg 51%
    17:00 +26°C° 0 mm 4 mps 759 mmHg 55%
    18:00 +25°C° 0 mm 4 mps 759 mmHg 59%
    19:00 +23°C° 0 mm 4 mps 759 mmHg 63%
    20:00 +22°C° 0 mm 3 mps 759 mmHg 68%
    21:00 +21°C° 0 mm 3 mps 760 mmHg 73%
    22:00 +20°C° 0 mm 2 mps 760 mmHg 77%
    23:00 +20°C° 0 mm 2 mps 760 mmHg 80%

    Tomorrow, 24 January, Thursday

    Time Temperature Precipitation Wind Pressure Humidity
    00:00 +19°C° 0 mm 2 mps 760 mmHg 83%
    01:00 +20°C° 0 mm 1 mps 759 mmHg 86%
    02:00 +20°C° 0 mm 1 mps 759 mmHg 88%
    03:00 +19°C° 0 mm 1 mps 759 mmHg 89%
    04:00 +19°C° 0 mm 1 mps 759 mmHg 91%
    05:00 +20°C° 0 mm 1 mps 759 mmHg 87%
    06:00 +21°C° 0 mm 1 mps 759 mmHg 83%
    07:00 +21°C° 0 mm 1 mps 759 mmHg 79%
    08:00 +25°C° 0 mm 1 mps 759 mmHg 64%
    09:00 +28°C° 0 mm 1 mps 758 mmHg 50%
    10:00 +32°C° 0 mm 1 mps 758 mmHg 35%
    11:00 +35°C° 0 mm 1 mps 757 mmHg 29%
    12:00 +39°C° 0 mm 1 mps 757 mmHg 23%
    13:00 +42°C° 0 mm 1 mps 756 mmHg 17%
    14:00 +43°C° 0 mm 1 mps 755 mmHg 16%
    15:00 +43°C° 0 mm 2 mps 755 mmHg 16%
    16:00 +45°C° 0 mm 2 mps 754 mmHg 15%
    17:00 +43°C° 0 mm 2 mps 754 mmHg 18%
    18:00 +41°C° 0 mm 2 mps 754 mmHg 20%
    19:00 +40°C° 0 mm 2 mps 754 mmHg 23%
    20:00 +38°C° 0 mm 2 mps 754 mmHg 27%
    21:00 +36°C° 0 mm 3 mps 754 mmHg 30%
    22:00 +35°C° 0 mm 3 mps 754 mmHg 34%
    23:00 +34°C° 0 mm 3 mps 753 mmHg 33%

    Day after tomorrow, 25 January, Friday

    Time Temperature Precipitation Wind Pressure Humidity
    00:00 +34°C° 0 mm 3 mps 753 mmHg 33%
    01:00 +34°C° 0 mm 3 mps 753 mmHg 33%
    02:00 +34°C° 0 mm 4 mps 752 mmHg 32%
    03:00 +34°C° 0 mm 5 mps 752 mmHg 31%
    04:00 +34°C° 0 mm 7 mps 751 mmHg 31%
    05:00 +35°C° 0 mm 7 mps 752 mmHg 32%
    06:00 +35°C° 0 mm 7 mps 752 mmHg 34%
    07:00 +35°C° 0 mm 8 mps 752 mmHg 35%
    08:00 +39°C° 0 mm 8 mps 752 mmHg 30%
    09:00 +41°C° 0 mm 8 mps 752 mmHg 26%
    10:00 +45°C° 0 mm 7 mps 752 mmHg 21%
    11:00 +47°C° 0 mm 7 mps 752 mmHg 18%
    12:00 +48°C° 0 mm 6 mps 752 mmHg 15%
    13:00 +51°C° 0 mm 6 mps 751 mmHg 12%
    14:00 +44°C° 0.1 mm 6 mps 751 mmHg 27%
    15:00 +36°C° 0.1 mm 5 mps 751 mmHg 42%
    16:00 +30°C° 0.1 mm 5 mps 751 mmHg 57%
    17:00 +29°C° 0.1 mm 5 mps 751 mmHg 58%
    18:00 +28°C° 0.1 mm 5 mps 752 mmHg 58%
    19:00 +27°C° 0.1 mm 4 mps 753 mmHg 59%
    20:00 +26°C° 0.1 mm 4 mps 754 mmHg 63%
    21:00 +25°C° 0.1 mm 4 mps 754 mmHg 66%
    22:00 +24°C° 0.1 mm 3 mps 755 mmHg 69%
    23:00 +24°C° 0 mm 3 mps 755 mmHg 72%

    26 January, Saturday

    Time Temperature Precipitation Wind Pressure Humidity
    00:00 +23°C° 0 mm 2 mps 755 mmHg 74%
    01:00 +23°C° 0 mm 2 mps 755 mmHg 76%
    02:00 +23°C° 0 mm 2 mps 755 mmHg 77%
    03:00 +23°C° 0 mm 2 mps 755 mmHg 77%
    04:00 +22°C° 0 mm 1 mps 754 mmHg 78%
    05:00 +21°C° 0 mm 2 mps 754 mmHg 78%
    06:00 +21°C° 0 mm 2 mps 754 mmHg 78%
    07:00 +21°C° 0 mm 2 mps 754 mmHg 78%
    08:00 +24°C° 0 mm 2 mps 754 mmHg 72%
    09:00 +25°C° 0 mm 2 mps 755 mmHg 66%
    10:00 +26°C° 0 mm 2 mps 755 mmHg 60%
    11:00 +28°C° 0 mm 2 mps 754 mmHg 54%
    12:00 +30°C° 0 mm 2 mps 754 mmHg 48%
    13:00 +31°C° 0 mm 3 mps 753 mmHg 42%
    14:00 +33°C° 0 mm 3 mps 753 mmHg 40%
    15:00 +34°C° 0 mm 4 mps 752 mmHg 39%
    16:00 +34°C° 0 mm 4 mps 752 mmHg 38%
    17:00 +30°C° 0 mm 5 mps 752 mmHg 47%
    18:00 +27°C° 0 mm 5 mps 753 mmHg 56%
    19:00 +23°C° 0 mm 5 mps 753 mmHg 65%
    20:00 +22°C° 0 mm 5 mps 754 mmHg 67%
    21:00 +21°C° 0 mm 4 mps 754 mmHg 70%
    22:00 +20°C° 0 mm 4 mps 755 mmHg 72%
    23:00 +20°C° 0 mm 3 mps 755 mmHg 71%

    27 January, Sunday

    Time Temperature Precipitation Wind Pressure Humidity
    00:00 +20°C° 0 mm 3 mps 755 mmHg 71%
    01:00 +20°C° 0 mm 3 mps 755 mmHg 71%
    02:00 +19°C° 0 mm 2 mps 756 mmHg 70%
    03:00 +19°C° 0 mm 2 mps 756 mmHg 70%
    04:00 +19°C° 0 mm 2 mps 756 mmHg 70%
    05:00 +19°C° 0 mm 2 mps 756 mmHg 69%
    06:00 +19°C° 0 mm 2 mps 756 mmHg 68%
    07:00 +19°C° 0 mm 2 mps 757 mmHg 68%
    08:00 +20°C° 0 mm 2 mps 757 mmHg 62%
    09:00 +21°C° 0 mm 2 mps 757 mmHg 56%
    10:00 +23°C° 0 mm 2 mps 757 mmHg 51%
    11:00 +25°C° 0 mm 2 mps 757 mmHg 46%
    12:00 +26°C° 0 mm 2 mps 756 mmHg 40%
    13:00 +27°C° 0 mm 1 mps 756 mmHg 35%
    14:00 +28°C° 0 mm 2 mps 756 mmHg 32%
    15:00 +30°C° 0 mm 2 mps 756 mmHg 29%
    16:00 +31°C° 0 mm 3 mps 756 mmHg 25%
    17:00 +29°C° 0 mm 4 mps 756 mmHg 32%
    18:00 +27°C° 0 mm 4 mps 757 mmHg 40%
    19:00 +25°C° 0 mm 5 mps 757 mmHg 47%
    20:00 +23°C° 0 mm 4 mps 758 mmHg 54%
    21:00 +21°C° 0 mm 4 mps 758 mmHg 61%
    22:00 +20°C° 0 mm 3 mps 759 mmHg 67%
    23:00 +19°C° 0 mm 3 mps 759 mmHg 69%

    28 January, Monday

    Time Temperature Precipitation Wind Pressure Humidity
    00:00 +19°C° 0 mm 2 mps 759 mmHg 71%
    01:00 +19°C° 0 mm 1 mps 759 mmHg 73%
    02:00 +19°C° 0 mm 1 mps 759 mmHg 75%
    03:00 +19°C° 0 mm 1 mps 758 mmHg 76%
    04:00 +18°C° 0 mm 1 mps 758 mmHg 78%
    05:00 +19°C° 0 mm 1 mps 758 mmHg 76%
    06:00 +17°C° 0 mm 0 mps 759 mmHg 74%
    07:00 +18°C° 0 mm 0 mps 759 mmHg 72%
    08:00 +21°C° 0 mm 0 mps 759 mmHg 61%
    09:00 +23°C° 0 mm 0 mps 759 mmHg 50%
    10:00 +26°C° 0 mm 0 mps 758 mmHg 40%
    11:00 +30°C° 0 mm 1 mps 758 mmHg 34%
    12:00 +32°C° 0 mm 1 mps 758 mmHg 27%
    13:00 +35°C° 0 mm 2 mps 757 mmHg 21%
    14:00 +36°C° 0 mm 3 mps 757 mmHg 20%
    15:00 +36°C° 0 mm 4 mps 757 mmHg 19%
    16:00 +36°C° 0 mm 4 mps 756 mmHg 18%
    17:00 +33°C° 0 mm 5 mps 757 mmHg 30%
    18:00 +29°C° 0 mm 5 mps 757 mmHg 43%
    19:00 +25°C° 0 mm 5 mps 758 mmHg 56%
    20:00 +23°C° 0 mm 4 mps 758 mmHg 61%
    21:00 +22°C° 0 mm 4 mps 759 mmHg 67%
    22:00 +21°C° 0 mm 3 mps 760 mmHg 72%
    23:00 +20°C° 0 mm 3 mps 760 mmHg 74%
    Show more